Time,TemperatureF,DewpointF,PressureIn,WindDirection,WindDirectionDegrees,WindSpeedMPH,WindSpeedGustMPH,Humidity,HourlyPrecipIn,Conditions,Clouds,dailyrainin,SoftwareType,DateUTC
2013-06-04 00:00:00,68.0,66.0,29.85,SW,236,0.0,4.0,94,-99.99,,,-99.99,,2013-06-04 04:00:00,
2013-06-04 00:23:00,68.0,66.0,29.85,SW,236,0.0,4.0,94,-99.99,,,-99.99,,2013-06-04 04:23:00,
2013-06-04 00:33:00,68.0,66.0,29.85,SW,236,0.0,4.0,94,-99.99,,,-99.99,,2013-06-04 04:33:00,
2013-06-04 00:42:00,68.0,66.0,29.85,SW,236,0.0,4.0,94,-99.99,,,-99.99,,2013-06-04 04:42:00,
2013-06-04 00:53:00,68.0,66.0,29.85,SW,236,0.0,4.0,94,-99.99,,,-99.99,,2013-06-04 04:53:00,
2013-06-04 01:00:00,67.0,65.0,29.88,NNW,333,0.0,4.0,94,-99.99,,,-99.99,,2013-06-04 05:00:00,
2013-06-04 01:22:00,67.0,65.0,29.88,NNW,333,0.0,4.0,94,-99.99,,,-99.99,,2013-06-04 05:22:00,
2013-06-04 01:32:00,67.0,65.0,29.88,NNW,333,0.0,4.0,94,-99.99,,,-99.99,,2013-06-04 05:32:00,
2013-06-04 01:42:00,67.0,65.0,29.88,NNW,333,0.0,4.0,94,-99.99,,,-99.99,,2013-06-04 05:42:00,
2013-06-04 01:52:00,67.0,65.0,29.88,NNW,333,0.0,4.0,94,-99.99,,,-99.99,,2013-06-04 05:52:00,
2013-06-04 02:00:00,65.0,62.0,29.91,NNW,343,4.0,10.0,90,-99.99,,,-99.99,,2013-06-04 06:00:00,
2013-06-04 02:22:00,65.0,62.0,29.91,NNW,343,4.0,10.0,90,-99.99,,,-99.99,,2013-06-04 06:22:00,
2013-06-04 02:32:00,65.0,62.0,29.91,NNW,343,4.0,10.0,90,-99.99,,,-99.99,,2013-06-04 06:32:00,
2013-06-04 02:42:00,65.0,62.0,29.91,NNW,343,4.0,10.0,90,-99.99,,,-99.99,,2013-06-04 06:42:00,
2013-06-04 02:52:00,65.0,62.0,29.91,NNW,343,4.0,10.0,90,-99.99,,,-99.99,,2013-06-04 06:52:00,
2013-06-04 03:00:00,62.0,53.0,29.91,NNW,346,8.0,13.0,73,-99.99,,,-99.99,,2013-06-04 07:00:00,
2013-06-04 03:22:00,62.0,53.0,29.91,NNW,346,8.0,13.0,73,-99.99,,,-99.99,,2013-06-04 07:22:00,
2013-06-04 03:32:00,62.0,53.0,29.91,NNW,346,8.0,13.0,73,-99.99,,,-99.99,,2013-06-04 07:32:00,
2013-06-04 03:42:00,62.0,53.0,29.91,NNW,346,8.0,13.0,73,-99.99,,,-99.99,,2013-06-04 07:42:00,
2013-06-04 03:52:00,62.0,53.0,29.91,NNW,346,8.0,13.0,73,-99.99,,,-99.99,,2013-06-04 07:52:00,
2013-06-04 05:00:00,59.0,47.0,29.94,North,2,4.0,10.0,65,-99.99,,,-99.99,,2013-06-04 09:00:00,
2013-06-04 05:22:00,59.0,47.0,29.94,North,2,4.0,10.0,65,-99.99,,,-99.99,,2013-06-04 09:22:00,
2013-06-04 05:33:00,59.0,47.0,29.94,North,2,4.0,10.0,65,-99.99,,,-99.99,,2013-06-04 09:33:00,
2013-06-04 05:43:00,59.0,47.0,29.94,North,2,4.0,10.0,65,-99.99,,,-99.99,,2013-06-04 09:43:00,
2013-06-04 05:53:00,59.0,47.0,29.94,North,2,4.0,10.0,65,-99.99,,,-99.99,,2013-06-04 09:53:00,
2013-06-04 06:00:00,58.0,47.0,29.97,North,354,3.0,11.0,68,-99.99,,,-99.99,,2013-06-04 10:00:00,
2013-06-04 06:33:00,58.0,47.0,29.97,North,354,3.0,11.0,68,-99.99,,,-99.99,,2013-06-04 10:33:00,
2013-06-04 06:42:00,58.0,47.0,29.97,North,354,3.0,11.0,68,-99.99,,,-99.99,,2013-06-04 10:42:00,
2013-06-04 06:53:00,58.0,47.0,29.97,North,354,3.0,11.0,68,-99.99,,,-99.99,,2013-06-04 10:53:00,
2013-06-04 07:00:00,59.0,48.0,30.00,North,350,6.0,9.0,67,-99.99,,,-99.99,,2013-06-04 11:00:00,
2013-06-04 07:22:00,59.0,48.0,30.00,North,350,6.0,9.0,67,-99.99,,,-99.99,,2013-06-04 11:22:00,
2013-06-04 07:32:00,59.0,48.0,30.00,North,350,6.0,9.0,67,-99.99,,,-99.99,,2013-06-04 11:32:00,
2013-06-04 07:43:00,59.0,48.0,30.00,North,350,6.0,9.0,67,-99.99,,,-99.99,,2013-06-04 11:43:00,
2013-06-04 07:52:00,59.0,48.0,30.00,North,350,6.0,9.0,67,-99.99,,,-99.99,,2013-06-04 11:52:00,
2013-06-04 08:00:00,61.0,45.0,30.03,North,0,7.0,21.0,56,-99.99,,,-99.99,,2013-06-04 12:00:00,
2013-06-04 08:22:00,61.0,45.0,30.03,North,0,7.0,21.0,56,-99.99,,,-99.99,,2013-06-04 12:22:00,
2013-06-04 08:32:00,61.0,45.0,30.03,North,0,7.0,21.0,56,-99.99,,,-99.99,,2013-06-04 12:32:00,
2013-06-04 08:42:00,61.0,45.0,30.03,North,0,7.0,21.0,56,-99.99,,,-99.99,,2013-06-04 12:42:00,
2013-06-04 08:53:00,61.0,45.0,30.03,North,0,7.0,21.0,56,-99.99,,,-99.99,,2013-06-04 12:53:00,
2013-06-04 09:00:00,63.0,44.0,30.03,NNE,27,6.0,19.0,50,-99.99,,,-99.99,,2013-06-04 13:00:00,
2013-06-04 09:22:00,63.0,44.0,30.03,NNE,27,6.0,19.0,50,-99.99,,,-99.99,,2013-06-04 13:22:00,
2013-06-04 09:32:00,63.0,44.0,30.03,NNE,27,6.0,19.0,50,-99.99,,,-99.99,,2013-06-04 13:32:00,
2013-06-04 09:42:00,63.0,44.0,30.03,NNE,27,6.0,19.0,50,-99.99,,,-99.99,,2013-06-04 13:42:00,
2013-06-04 09:52:00,63.0,44.0,30.03,NNE,27,6.0,19.0,50,-99.99,,,-99.99,,2013-06-04 13:52:00,
2013-06-04 10:00:00,65.0,45.0,30.06,North,9,5.0,18.0,47,-99.99,,,-99.99,,2013-06-04 14:00:00,
2013-06-04 10:22:00,65.0,45.0,30.06,North,9,5.0,18.0,47,-99.99,,,-99.99,,2013-06-04 14:22:00,
2013-06-04 10:32:00,65.0,45.0,30.06,North,9,5.0,18.0,47,-99.99,,,-99.99,,2013-06-04 14:32:00,
2013-06-04 10:43:00,65.0,45.0,30.06,North,9,5.0,18.0,47,-99.99,,,-99.99,,2013-06-04 14:43:00,
2013-06-04 10:52:00,65.0,45.0,30.06,North,9,5.0,18.0,47,-99.99,,,-99.99,,2013-06-04 14:52:00,
2013-06-04 11:00:00,67.0,45.0,30.06,WNW,296,4.0,16.0,45,-99.99,,,-99.99,,2013-06-04 15:00:00,
2013-06-04 11:33:00,67.0,45.0,30.06,WNW,296,4.0,16.0,45,-99.99,,,-99.99,,2013-06-04 15:33:00,
2013-06-04 11:42:00,67.0,45.0,30.06,WNW,296,4.0,16.0,45,-99.99,,,-99.99,,2013-06-04 15:42:00,
2013-06-04 11:53:00,67.0,45.0,30.06,WNW,296,4.0,16.0,45,-99.99,,,-99.99,,2013-06-04 15:53:00,
2013-06-04 12:00:00,69.0,47.0,30.06,NW,309,7.0,17.0,46,-99.99,,,-99.99,,2013-06-04 16:00:00,
2013-06-04 12:33:00,69.0,47.0,30.06,NW,309,7.0,17.0,46,-99.99,,,-99.99,,2013-06-04 16:33:00,
2013-06-04 12:42:00,69.0,47.0,30.06,NW,309,7.0,17.0,46,-99.99,,,-99.99,,2013-06-04 16:42:00,
2013-06-04 12:53:00,69.0,47.0,30.06,NW,309,7.0,17.0,46,-99.99,,,-99.99,,2013-06-04 16:53:00,
2013-06-04 13:00:00,71.0,46.0,30.03,NNW,327,9.0,13.0,40,-99.99,,,-99.99,,2013-06-04 17:00:00,
2013-06-04 13:33:00,71.0,46.0,30.03,NNW,327,9.0,13.0,40,-99.99,,,-99.99,,2013-06-04 17:33:00,
2013-06-04 13:42:00,71.0,46.0,30.03,NNW,327,9.0,13.0,40,-99.99,,,-99.99,,2013-06-04 17:42:00,
2013-06-04 13:52:00,71.0,46.0,30.03,NNW,327,9.0,13.0,40,-99.99,,,-99.99,,2013-06-04 17:52:00,
2013-06-04 14:00:00,72.0,44.0,30.03,WNW,299,9.0,15.0,36,-99.99,,,-99.99,,2013-06-04 18:00:00,
2013-06-04 14:32:00,72.0,44.0,30.03,WNW,299,9.0,15.0,36,-99.99,,,-99.99,,2013-06-04 18:32:00,
2013-06-04 14:42:00,72.0,44.0,30.03,WNW,299,9.0,15.0,36,-99.99,,,-99.99,,2013-06-04 18:42:00,
2013-06-04 14:53:00,72.0,44.0,30.03,WNW,299,9.0,15.0,36,-99.99,,,-99.99,,2013-06-04 18:53:00,
2013-06-04 15:00:00,74.0,44.0,30.03,ENE,71,0.0,14.0,35,-99.99,,,-99.99,,2013-06-04 19:00:00,
2013-06-04 15:33:00,74.0,44.0,30.03,ENE,71,0.0,14.0,35,-99.99,,,-99.99,,2013-06-04 19:33:00,
2013-06-04 15:42:00,74.0,44.0,30.03,ENE,71,0.0,14.0,35,-99.99,,,-99.99,,2013-06-04 19:42:00,
2013-06-04 15:52:00,74.0,44.0,30.03,ENE,71,0.0,14.0,35,-99.99,,,-99.99,,2013-06-04 19:52:00,
2013-06-04 16:00:00,75.0,40.0,30.00,North,2,3.0,14.0,29,-99.99,,,-99.99,,2013-06-04 20:00:00,
2013-06-04 16:32:00,75.0,40.0,30.00,North,2,3.0,14.0,29,-99.99,,,-99.99,,2013-06-04 20:32:00,
2013-06-04 16:42:00,75.0,40.0,30.00,North,2,3.0,14.0,29,-99.99,,,-99.99,,2013-06-04 20:42:00,
2013-06-04 16:53:00,75.0,40.0,30.00,North,2,3.0,14.0,29,-99.99,,,-99.99,,2013-06-04 20:53:00,
2013-06-04 17:00:00,74.0,42.0,30.00,NW,322,4.0,18.0,32,-99.99,,,-99.99,,2013-06-04 21:00:00,
2013-06-04 17:22:00,74.0,42.0,30.00,NW,322,4.0,18.0,32,-99.99,,,-99.99,,2013-06-04 21:22:00,
2013-06-04 17:33:00,74.0,42.0,30.00,NW,322,4.0,18.0,32,-99.99,,,-99.99,,2013-06-04 21:33:00,
2013-06-04 17:42:00,74.0,42.0,30.00,NW,322,4.0,18.0,32,-99.99,,,-99.99,,2013-06-04 21:42:00,
2013-06-04 17:53:00,74.0,42.0,30.00,NW,322,4.0,18.0,32,-99.99,,,-99.99,,2013-06-04 21:53:00,
2013-06-04 18:00:00,75.0,43.0,30.00,North,0,8.0,13.0,32,-99.99,,,-99.99,,2013-06-04 22:00:00,
2013-06-04 18:22:00,75.0,43.0,30.00,North,0,8.0,13.0,32,-99.99,,,-99.99,,2013-06-04 22:22:00,
2013-06-04 18:33:00,75.0,43.0,30.00,North,0,8.0,13.0,32,-99.99,,,-99.99,,2013-06-04 22:33:00,
2013-06-04 18:42:00,75.0,43.0,30.00,North,0,8.0,13.0,32,-99.99,,,-99.99,,2013-06-04 22:42:00,
2013-06-04 18:52:00,75.0,43.0,30.00,North,0,8.0,13.0,32,-99.99,,,-99.99,,2013-06-04 22:52:00,
2013-06-04 19:00:00,75.0,44.0,30.03,WNW,283,7.0,10.0,33,-99.99,,,-99.99,,2013-06-04 23:00:00,
2013-06-04 19:22:00,75.0,44.0,30.03,WNW,283,7.0,10.0,33,-99.99,,,-99.99,,2013-06-04 23:22:00,
2013-06-04 19:32:00,75.0,44.0,30.03,WNW,283,7.0,10.0,33,-99.99,,,-99.99,,2013-06-04 23:32:00,
2013-06-04 19:42:00,75.0,44.0,30.03,WNW,283,7.0,10.0,33,-99.99,,,-99.99,,2013-06-04 23:42:00,
2013-06-04 19:52:00,75.0,44.0,30.03,WNW,283,7.0,10.0,33,-99.99,,,-99.99,,2013-06-04 23:52:00,
2013-06-04 20:00:00,67.0,52.0,30.03,WSW,240,3.0,8.0,60,-99.99,,,-99.99,,2013-06-05 00:00:00,
2013-06-04 20:22:00,67.0,52.0,30.03,WSW,240,3.0,8.0,60,-99.99,,,-99.99,,2013-06-05 00:22:00,
2013-06-04 20:33:00,67.0,52.0,30.03,WSW,240,3.0,8.0,60,-99.99,,,-99.99,,2013-06-05 00:33:00,
2013-06-04 20:42:00,67.0,52.0,30.03,WSW,240,3.0,8.0,60,-99.99,,,-99.99,,2013-06-05 00:42:00,
2013-06-04 20:52:00,67.0,52.0,30.03,WSW,240,3.0,8.0,60,-99.99,,,-99.99,,2013-06-05 00:52:00,
2013-06-04 21:00:00,59.0,51.0,30.06,SSW,208,0.0,4.0,76,-99.99,,,-99.99,,2013-06-05 01:00:00,
2013-06-04 21:22:00,59.0,51.0,30.06,SSW,208,0.0,4.0,76,-99.99,,,-99.99,,2013-06-05 01:22:00,
2013-06-04 21:32:00,59.0,51.0,30.06,SSW,208,0.0,4.0,76,-99.99,,,-99.99,,2013-06-05 01:32:00,
2013-06-04 21:42:00,59.0,51.0,30.06,SSW,208,0.0,4.0,76,-99.99,,,-99.99,,2013-06-05 01:42:00,
2013-06-04 21:52:00,59.0,51.0,30.06,SSW,208,0.0,4.0,76,-99.99,,,-99.99,,2013-06-05 01:52:00,
2013-06-04 22:00:00,57.0,52.0,30.09,West,275,0.0,4.0,82,-99.99,,,-99.99,,2013-06-05 02:00:00,
2013-06-04 22:22:00,57.0,52.0,30.09,West,275,0.0,4.0,82,-99.99,,,-99.99,,2013-06-05 02:22:00,
2013-06-04 22:32:00,57.0,52.0,30.09,West,275,0.0,4.0,82,-99.99,,,-99.99,,2013-06-05 02:32:00,
2013-06-04 22:42:00,57.0,52.0,30.09,West,275,0.0,4.0,82,-99.99,,,-99.99,,2013-06-05 02:42:00,
2013-06-04 22:52:00,57.0,52.0,30.09,West,275,0.0,4.0,82,-99.99,,,-99.99,,2013-06-05 02:52:00,
2013-06-04 23:00:00,54.0,50.0,30.09,SW,215,0.0,4.0,87,-99.99,,,-99.99,,2013-06-05 03:00:00,
2013-06-04 23:33:00,54.0,50.0,30.09,SW,215,0.0,4.0,87,-99.99,,,-99.99,,2013-06-05 03:33:00,
2013-06-04 23:43:00,54.0,50.0,30.09,SW,215,0.0,4.0,87,-99.99,,,-99.99,,2013-06-05 03:43:00,
2013-06-04 23:53:00,54.0,50.0,30.09,SW,215,0.0,4.0,87,-99.99,,,-99.99,,2013-06-05 03:53:00,